QPF
0.01 0.01 0.03 0.03 0.02 0.02 0.02 0.02 0.01 0.01 0.01 0.01 0.00 0.00 0.00 0.01 0.01 0.01 0.01 0.01 0.01 0.01 0.01 0.01 0.01 0.02 0.01 0.01 0.01 0.01 0.01 0.01 0.01 0.01 0.01 0.00 0.00 0.01 0.01 0.01 0.01 0.00 0.01
0.01 0.02 0.03 0.04 0.03 0.03 0.03 0.02 0.02 0.01 0.01 0.00 0.00 0.00 0.00 0.00 0.01 0.01 0.01 0.01 0.01 0.01 0.01 0.01 0.01 0.02 0.01 0.01 0.01 0.01 0.01 0.00 0.00 0.00 0.00 0.00 0.00 0.00 0.00 0.01 0.01 0.01 0.01
0.01 0.02 0.04 0.05 0.04 0.04 0.03 0.03 0.02 0.02 0.01 0.01 0.00 0.00 0.00 0.00 0.01 0.01 0.01 0.01 0.01 0.01 0.01 0.01 0.01 0.01 0.01 0.01 0.00 0.00 0.00 0.00 0.00 0.00 0.00 0.00 0.00 0.00 0.00 0.00 0.01 0.01 0.01
0.01 0.02 0.04 0.05 0.05 0.05 0.04 0.04 0.03 0.03 0.02 0.02 0.01 0.01 0.01 0.01 0.01 0.01 0.01 0.01 0.01 0.00 0.00 0.01 0.01 0.02 0.02 0.01 0.00 0.00 0.00 0.00 0.00 0.00 0.00 0.00 0.00 0.00 0.01 0.01 0.01 0.01 0.01
0.02 0.03 0.05 0.07 0.06 0.06 0.05 0.04 0.03 0.03 0.03 0.03 0.02 0.02 0.01 0.01 0.01 0.01 0.01 0.01 0.01 0.01 0.01 0.01 0.01 0.01 0.01 0.01 0.00 0.00 0.00 0.00 0.00 0.00 0.00 0.00 0.00 0.00 0.01 0.02 0.02 0.02 0.01
0.02 0.03 0.06 0.09 0.08 0.08 0.07 0.05 0.05 0.03 0.02 0.03 0.03 0.03 0.02 0.02 0.02 0.01 0.01 0.01 0.01 0.01 0.01 0.01 0.01 0.01 0.01 0.00 0.00 0.00 0.00 0.00 0.00 0.00 0.00 0.00 0.00 0.01 0.01 0.02 0.02 0.02 0.03
0.01 0.03 0.05 0.08 0.11 0.10 0.09 0.07 0.05 0.04 0.03 0.03 0.03 0.03 0.02 0.03 0.03 0.02 0.01 0.01 0.01 0.01 0.01 0.01 0.01 0.01 0.00 0.00 0.00 0.00 0.00 0.00 0.00 0.00 0.00 0.00 0.00 0.01 0.02 0.02 0.01 0.02 0.03
0.02 0.03 0.04 0.07 0.10 0.11 0.11 0.10 0.07 0.04 0.03 0.02 0.02 0.03 0.04 0.04 0.03 0.02 0.02 0.01 0.01 0.01 0.01 0.01 0.01 0.01 0.01 0.01 0.01 0.01 0.00 0.00 0.00 0.00 0.00 0.00 0.00 0.01 0.02 0.01 0.01 0.01 0.01
0.02 0.02 0.04 0.07 0.09 0.10 0.12 0.12 0.10 0.07 0.04 0.02 0.02 0.02 0.03 0.05 0.04 0.02 0.02 0.02 0.02 0.01 0.01 0.01 0.01 0.01 0.01 0.01 0.01 0.01 0.00 0.00 0.00 0.00 0.00 0.00 0.00 0.01 0.01 0.01 0.01 0.02 0.02
0.02 0.02 0.04 0.06 0.08 0.09 0.11 0.13 0.13 0.10 0.07 0.03 0.02 0.02 0.02 0.03 0.03 0.03 0.02 0.02 0.02 0.02 0.01 0.01 0.01 0.01 0.01 0.02 0.01 0.01 0.01 0.00 0.00 0.00 0.00 0.00 0.00 0.01 0.01 0.01 0.01 0.02 0.02
0.03 0.02 0.03 0.06 0.08 0.09 0.10 0.13 0.15 0.14 0.09 0.06 0.03 0.02 0.02 0.02 0.02 0.02 0.02 0.02 0.02 0.02 0.02 0.01 0.01 0.01 0.01 0.01 0.01 0.01 0.01 0.00 0.00 0.00 0.00 0.00 0.01 0.01 0.01 0.01 0.01 0.01 0.01
0.05 0.03 0.03 0.05 0.07 0.08 0.10 0.12 0.14 0.14 0.12 0.08 0.05 0.03 0.02 0.02 0.02 0.03 0.02 0.02 0.02 0.02 0.01 0.01 0.01 0.01 0.01 0.01 0.01 0.01 0.01 0.01 0.00 0.00 0.00 0.00 0.01 0.02 0.02 0.01 0.01 0.01 0.01
0.07 0.04 0.03 0.04 0.06 0.08 0.09 0.12 0.13 0.14 0.13 0.10 0.07 0.04 0.03 0.02 0.03 0.03 0.02 0.01 0.01 0.01 0.01 0.01 0.02 0.02 0.01 0.01 0.00 0.00 0.01 0.01 0.00 0.00 0.00 0.00 0.01 0.02 0.02 0.02 0.01 0.01 0.01
0.11 0.05 0.04 0.04 0.06 0.08 0.09 0.11 0.14 0.14 0.13 0.10 0.07 0.05 0.04 0.02 0.03 0.04 0.03 0.02 0.02 0.02 0.01 0.01 0.02 0.01 0.01 0.00 0.00 0.00 0.00 0.00 0.00 0.00 0.00 0.00 0.00 0.01 0.02 0.02 0.01 0.01 0.01
0.13 0.07 0.04 0.04 0.05 0.07 0.09 0.11 0.15 0.15 0.13 0.10 0.08 0.06 0.04 0.03 0.03 0.04 0.04 0.03 0.02 0.02 0.02 0.02 0.01 0.01 0.01 0.00 0.00 0.00 0.00 0.00 0.00 0.00 0.00 0.00 0.00 0.00 0.01 0.01 0.01 0.01 0.02
0.11 0.08 0.06 0.06 0.05 0.06 0.07 0.10 0.13 0.15 0.13 0.11 0.08 0.07 0.05 0.03 0.02 0.03 0.03 0.03 0.02 0.02 0.03 0.02 0.02 0.02 0.01 0.01 0.00 0.00 0.00 0.00 0.00 0.00 0.00 0.00 0.00 0.00 0.01 0.01 0.01 0.01 0.01
0.11 0.09 0.09 0.08 0.07 0.06 0.06 0.08 0.11 0.15 0.14 0.12 0.08 0.06 0.05 0.04 0.02 0.02 0.02 0.02 0.02 0.02 0.02 0.03 0.02 0.02 0.02 0.01 0.01 0.00 0.00 0.00 0.00 0.00 0.00 0.00 0.00 0.00 0.01 0.01 0.01 0.01 0.01
0.11 0.10 0.10 0.10 0.09 0.08 0.07 0.09 0.10 0.15 0.16 0.14 0.08 0.05 0.04 0.04 0.04 0.03 0.03 0.02 0.02 0.02 0.02 0.03 0.03 0.02 0.02 0.02 0.01 0.01 0.00 0.00 0.00 0.00 0.00 0.00 0.00 0.00 0.00 0.01 0.01 0.00 0.00
0.08 0.07 0.08 0.06 0.05 0.05 0.06 0.08 0.11 0.14 0.17 0.15 0.10 0.05 0.03 0.03 0.04 0.04 0.04 0.03 0.03 0.03 0.02 0.02 0.03 0.04 0.04 0.03 0.02 0.02 0.01 0.00 0.00 0.00 0.00 0.00 0.00 0.00 0.01 0.01 0.01 0.00 0.00
0.06 0.07 0.10 0.08 0.06 0.04 0.04 0.06 0.09 0.12 0.17 0.15 0.10 0.07 0.03 0.02 0.02 0.03 0.04 0.04 0.05 0.04 0.03 0.02 0.02 0.03 0.04 0.04 0.03 0.03 0.02 0.01 0.00 0.00 0.00 0.00 0.00 0.00 0.01 0.01 0.01 0.01 0.01
0.07 0.07 0.11 0.10 0.09 0.06 0.04 0.04 0.07 0.10 0.14 0.14 0.11 0.08 0.05 0.02 0.01 0.01 0.01 0.03 0.05 0.07 0.07 0.06 0.04 0.03 0.04 0.04 0.04 0.03 0.02 0.02 0.01 0.00 0.00 0.00 0.00 0.00 0.01 0.01 0.01 0.01 0.01
0.08 0.07 0.10 0.11 0.10 0.08 0.05 0.04 0.06 0.08 0.11 0.12 0.11 0.09 0.07 0.04 0.02 0.01 0.00 0.00 0.02 0.04 0.06 0.09 0.10 0.08 0.07 0.05 0.05 0.04 0.03 0.02 0.02 0.01 0.00 0.00 0.00 0.01 0.01 0.01 0.01 0.01 0.01
0.10 0.08 0.09 0.10 0.10 0.08 0.05 0.04 0.05 0.06 0.08 0.10 0.11 0.09 0.06 0.04 0.02 0.01 0.00 0.00 0.00 0.01 0.03 0.04 0.05 0.07 0.08 0.08 0.07 0.06 0.05 0.04 0.03 0.02 0.01 0.01 0.01 0.01 0.01 0.01 0.01 0.01 0.01
0.09 0.09 0.08 0.10 0.10 0.09 0.06 0.05 0.05 0.05 0.06 0.08 0.10 0.10 0.07 0.04 0.02 0.01 0.01 0.00 0.00 0.01 0.02 0.03 0.03 0.03 0.03 0.04 0.05 0.05 0.05 0.04 0.03 0.02 0.01 0.01 0.01 0.01 0.01 0.01 0.01 0.01 0.01
0.07 0.08 0.08 0.09 0.09 0.09 0.07 0.07 0.07 0.06 0.06 0.08 0.09 0.10 0.08 0.05 0.03 0.01 0.01 0.00 0.00 0.00 0.02 0.02 0.03 0.03 0.02 0.02 0.02 0.02 0.03 0.03 0.03 0.02 0.01 0.01 0.01 0.00 0.01 0.01 0.01 0.01 0.01
0.05 0.05 0.07 0.07 0.07 0.08 0.08 0.07 0.07 0.08 0.07 0.08 0.08 0.08 0.08 0.06 0.04 0.02 0.01 0.00 0.00 0.00 0.01 0.01 0.02 0.03 0.03 0.02 0.01 0.01 0.02 0.02 0.03 0.03 0.02 0.01 0.01 0.00 0.01 0.01 0.02 0.02 0.01
MSLP
1015.48 1015.28 1015.20 1015.27 1015.48 1015.78 1016.11 1016.41 1016.62 1016.72 1016.73 1016.67 1016.62 1016.60 1016.66 1016.79 1016.98 1017.17 1017.33 1017.42 1017.44 1017.38 1017.28 1017.17 1017.07 1017.00 1016.97 1016.95 1016.92 1016.87 1016.78 1016.66 1016.52 1016.38 1016.27 1016.19 1016.14 1016.11 1016.09 1016.05 1016.00 1015.93 1015.86
1015.14 1015.02 1015.02 1015.16 1015.43 1015.78 1016.15 1016.48 1016.72 1016.85 1016.88 1016.87 1016.86 1016.89 1016.99 1017.16 1017.36 1017.56 1017.71 1017.79 1017.78 1017.71 1017.59 1017.46 1017.34 1017.26 1017.20 1017.15 1017.08 1017.00 1016.87 1016.72 1016.56 1016.42 1016.30 1016.21 1016.16 1016.12 1016.09 1016.05 1015.99 1015.92 1015.84
1014.84 1014.79 1014.86 1015.07 1015.39 1015.80 1016.21 1016.57 1016.84 1017.01 1017.09 1017.12 1017.14 1017.21 1017.33 1017.50 1017.69 1017.87 1017.99 1018.04 1018.00 1017.91 1017.77 1017.63 1017.51 1017.41 1017.34 1017.28 1017.20 1017.09 1016.95 1016.78 1016.61 1016.45 1016.32 1016.23 1016.17 1016.12 1016.08 1016.03 1015.96 1015.89 1015.82
1014.67 1014.67 1014.79 1015.05 1015.42 1015.86 1016.30 1016.69 1016.99 1017.19 1017.30 1017.36 1017.41 1017.49 1017.61 1017.77 1017.93 1018.07 1018.14 1018.15 1018.08 1017.96 1017.83 1017.69 1017.58 1017.50 1017.43 1017.37 1017.29 1017.18 1017.03 1016.85 1016.67 1016.50 1016.36 1016.25 1016.17 1016.10 1016.04 1015.98 1015.91 1015.83 1015.77
1014.68 1014.72 1014.87 1015.16 1015.54 1015.99 1016.44 1016.84 1017.14 1017.35 1017.48 1017.56 1017.63 1017.71 1017.82 1017.95 1018.07 1018.16 1018.19 1018.15 1018.06 1017.93 1017.80 1017.68 1017.60 1017.55 1017.51 1017.47 1017.40 1017.30 1017.14 1016.96 1016.76 1016.57 1016.40 1016.26 1016.15 1016.06 1015.98 1015.89 1015.81 1015.74 1015.68
1014.89 1014.95 1015.11 1015.40 1015.77 1016.20 1016.63 1017.00 1017.29 1017.50 1017.63 1017.72 1017.79 1017.88 1017.97 1018.07 1018.15 1018.20 1018.18 1018.12 1018.01 1017.88 1017.77 1017.68 1017.64 1017.62 1017.62 1017.61 1017.56 1017.46 1017.31 1017.12 1016.90 1016.68 1016.47 1016.29 1016.14 1016.01 1015.89 1015.79 1015.70 1015.63 1015.58
1015.26 1015.33 1015.48 1015.75 1016.09 1016.47 1016.85 1017.18 1017.44 1017.63 1017.76 1017.85 1017.93 1018.02 1018.11 1018.19 1018.25 1018.26 1018.22 1018.13 1018.01 1017.89 1017.80 1017.74 1017.73 1017.76 1017.79 1017.80 1017.77 1017.68 1017.53 1017.32 1017.08 1016.83 1016.58 1016.35 1016.15 1015.98 1015.83 1015.71 1015.61 1015.55 1015.51
1015.70 1015.78 1015.93 1016.16 1016.46 1016.79 1017.10 1017.38 1017.60 1017.76 1017.89 1017.99 1018.09 1018.19 1018.29 1018.37 1018.42 1018.42 1018.36 1018.26 1018.13 1018.01 1017.93 1017.89 1017.91 1017.96 1018.02 1018.06 1018.04 1017.96 1017.80 1017.58 1017.32 1017.03 1016.75 1016.47 1016.23 1016.01 1015.84 1015.70 1015.60 1015.56 1015.55
1016.13 1016.22 1016.37 1016.59 1016.84 1017.11 1017.36 1017.59 1017.78 1017.92 1018.05 1018.17 1018.30 1018.44 1018.56 1018.66 1018.71 1018.70 1018.63 1018.51 1018.37 1018.25 1018.17 1018.14 1018.17 1018.24 1018.31 1018.36 1018.36 1018.28 1018.13 1017.90 1017.63 1017.32 1017.00 1016.69 1016.42 1016.17 1015.98 1015.83 1015.74 1015.71 1015.72
1016.44 1016.58 1016.75 1016.96 1017.18 1017.41 1017.63 1017.82 1017.98 1018.12 1018.27 1018.42 1018.59 1018.76 1018.92 1019.04 1019.09 1019.08 1018.99 1018.86 1018.70 1018.57 1018.48 1018.44 1018.48 1018.55 1018.63 1018.70 1018.71 1018.65 1018.51 1018.29 1018.01 1017.70 1017.37 1017.05 1016.75 1016.49 1016.28 1016.13 1016.05 1016.03 1016.07
1016.61 1016.81 1017.02 1017.24 1017.47 1017.68 1017.88 1018.05 1018.21 1018.36 1018.53 1018.72 1018.93 1019.14 1019.32 1019.46 1019.52 1019.50 1019.40 1019.24 1019.07 1018.91 1018.80 1018.76 1018.79 1018.87 1018.97 1019.05 1019.09 1019.05 1018.94 1018.74 1018.49 1018.19 1017.87 1017.55 1017.24 1016.98 1016.77 1016.62 1016.54 1016.52 1016.57
1016.62 1016.89 1017.16 1017.42 1017.67 1017.90 1018.10 1018.28 1018.44 1018.62 1018.82 1019.04 1019.28 1019.52 1019.73 1019.87 1019.93 1019.90 1019.78 1019.60 1019.40 1019.23 1019.11 1019.07 1019.10 1019.19 1019.31 1019.42 1019.50 1019.50 1019.43 1019.28 1019.06 1018.79 1018.49 1018.18 1017.89 1017.62 1017.41 1017.25 1017.17 1017.15 1017.19
1016.49 1016.84 1017.19 1017.51 1017.80 1018.05 1018.27 1018.47 1018.67 1018.87 1019.09 1019.34 1019.60 1019.86 1020.07 1020.21 1020.26 1020.22 1020.08 1019.89 1019.68 1019.50 1019.38 1019.34 1019.39 1019.51 1019.66 1019.82 1019.94 1020.00 1019.98 1019.88 1019.70 1019.47 1019.20 1018.92 1018.64 1018.37 1018.16 1017.99 1017.89 1017.85 1017.86
1016.28 1016.71 1017.12 1017.50 1017.84 1018.14 1018.40 1018.63 1018.85 1019.07 1019.32 1019.58 1019.85 1020.10 1020.31 1020.44 1020.48 1020.43 1020.28 1020.09 1019.89 1019.72 1019.62 1019.61 1019.69 1019.84 1020.04 1020.25 1020.42 1020.53 1020.57 1020.52 1020.39 1020.20 1019.96 1019.70 1019.43 1019.18 1018.95 1018.77 1018.64 1018.57 1018.54
1016.04 1016.54 1017.01 1017.44 1017.83 1018.17 1018.47 1018.73 1018.98 1019.22 1019.47 1019.74 1020.00 1020.25 1020.44 1020.57 1020.60 1020.55 1020.42 1020.24 1020.07 1019.93 1019.86 1019.89 1020.01 1020.21 1020.45 1020.70 1020.92 1021.08 1021.16 1021.16 1021.08 1020.92 1020.71 1020.47 1020.22 1019.96 1019.73 1019.53 1019.38 1019.26 1019.19
1015.82 1016.36 1016.87 1017.34 1017.77 1018.15 1018.48 1018.78 1019.05 1019.31 1019.57 1019.83 1020.08 1020.31 1020.50 1020.61 1020.65 1020.62 1020.52 1020.38 1020.25 1020.16 1020.14 1020.21 1020.37 1020.60 1020.87 1021.15 1021.41 1021.60 1021.71 1021.74 1021.69 1021.57 1021.39 1021.17 1020.93 1020.69 1020.46 1020.25 1020.07 1019.92 1019.81
1015.63 1016.19 1016.72 1017.22 1017.68 1018.10 1018.46 1018.79 1019.08 1019.35 1019.61 1019.87 1020.11 1020.32 1020.50 1020.63 1020.68 1020.68 1020.62 1020.54 1020.47 1020.43 1020.46 1020.57 1020.76 1021.00 1021.29 1021.58 1021.84 1022.05 1022.18 1022.23 1022.20 1022.10 1021.95 1021.76 1021.55 1021.33 1021.11 1020.91 1020.72 1020.55 1020.40
1015.47 1016.03 1016.57 1017.09 1017.57 1018.02 1018.42 1018.77 1019.09 1019.37 1019.63 1019.88 1020.11 1020.32 1020.50 1020.64 1020.72 1020.77 1020.77 1020.75 1020.74 1020.75 1020.82 1020.95 1021.14 1021.39 1021.67 1021.94 1022.19 1022.39 1022.52 1022.58 1022.58 1022.50 1022.39 1022.24 1022.06 1021.88 1021.70 1021.52 1021.34 1021.16 1020.99
1015.30 1015.85 1016.40 1016.93 1017.44 1017.92 1018.36 1018.74 1019.08 1019.38 1019.65 1019.89 1020.11 1020.32 1020.50 1020.66 1020.78 1020.87 1020.93 1020.98 1021.02 1021.08 1021.17 1021.31 1021.49 1021.71 1021.96 1022.20 1022.42 1022.61 1022.74 1022.81 1022.82 1022.78 1022.71 1022.61 1022.49 1022.36 1022.22 1022.08 1021.93 1021.77 1021.60
1015.09 1015.64 1016.20 1016.75 1017.29 1017.81 1018.28 1018.70 1019.07 1019.39 1019.66 1019.89 1020.11 1020.31 1020.50 1020.68 1020.84 1020.98 1021.09 1021.19 1021.28 1021.37 1021.48 1021.61 1021.77 1021.95 1022.15 1022.35 1022.54 1022.71 1022.83 1022.92 1022.96 1022.97 1022.95 1022.90 1022.84 1022.78 1022.70 1022.60 1022.49 1022.36 1022.20
1014.79 1015.36 1015.94 1016.52 1017.10 1017.66 1018.18 1018.64 1019.04 1019.37 1019.65 1019.88 1020.09 1020.29 1020.48 1020.67 1020.86 1021.04 1021.20 1021.35 1021.47 1021.59 1021.70 1021.81 1021.94 1022.09 1022.25 1022.41 1022.57 1022.72 1022.86 1022.96 1023.04 1023.09 1023.12 1023.14 1023.14 1023.13 1023.11 1023.07 1023.00 1022.90 1022.76
1014.40 1014.99 1015.60 1016.23 1016.86 1017.47 1018.03 1018.54 1018.97 1019.32 1019.60 1019.84 1020.03 1020.22 1020.41 1020.60 1020.81 1021.02 1021.22 1021.40 1021.56 1021.70 1021.81 1021.92 1022.03 1022.14 1022.27 1022.41 1022.56 1022.71 1022.85 1022.98 1023.09 1023.19 1023.27 1023.34 1023.39 1023.42 1023.44 1023.44 1023.40 1023.33 1023.21
1013.90 1014.53 1015.19 1015.87 1016.55 1017.21 1017.82 1018.37 1018.83 1019.21 1019.50 1019.73 1019.92 1020.09 1020.27 1020.47 1020.69 1020.92 1021.15 1021.36 1021.55 1021.71 1021.83 1021.94 1022.04 1022.14 1022.25 1022.39 1022.53 1022.69 1022.85 1023.01 1023.16 1023.28 1023.40 1023.49 1023.56 1023.62 1023.66 1023.68 1023.66 1023.61 1023.52
1013.33 1014.01 1014.72 1015.44 1016.16 1016.87 1017.53 1018.12 1018.61 1019.01 1019.32 1019.55 1019.73 1019.90 1020.07 1020.27 1020.50 1020.74 1021.00 1021.24 1021.45 1021.64 1021.79 1021.91 1022.02 1022.12 1022.24 1022.38 1022.53 1022.71 1022.89 1023.06 1023.23 1023.37 1023.49 1023.59 1023.66 1023.72 1023.75 1023.76 1023.75 1023.71 1023.63
1012.75 1013.47 1014.20 1014.95 1015.71 1016.45 1017.15 1017.77 1018.30 1018.73 1019.06 1019.30 1019.49 1019.65 1019.83 1020.03 1020.26 1020.52 1020.80 1021.07 1021.31 1021.53 1021.71 1021.86 1021.99 1022.11 1022.24 1022.40 1022.57 1022.75 1022.94 1023.13 1023.30 1023.44 1023.55 1023.63 1023.68 1023.70 1023.71 1023.70 1023.68 1023.64 1023.57
1012.21 1012.94 1013.69 1014.44 1015.21 1015.97 1016.69 1017.35 1017.91 1018.37 1018.73 1019.00 1019.20 1019.38 1019.56 1019.77 1020.01 1020.29 1020.58 1020.87 1021.15 1021.40 1021.61 1021.79 1021.94 1022.09 1022.25 1022.42 1022.60 1022.80 1022.99 1023.18 1023.34 1023.46 1023.55 1023.59 1023.61 1023.60 1023.57 1023.53 1023.49 1023.44 1023.39
Thickness
5721 5724 5725 5725 5726 5726 5727 5727 5727 5727 5727 5727 5727 5727 5727 5727 5727 5726 5726 5726 5726 5726 5725 5725 5725 5725 5725 5724 5724 5723 5722 5722 5721 5720 5720 5719 5719 5718 5718 5717 5717 5717 5716
5720 5720 5721 5722 5722 5722 5723 5723 5723 5723 5723 5723 5724 5724 5724 5724 5724 5723 5723 5723 5723 5723 5722 5722 5721 5721 5721 5720 5720 5719 5719 5718 5717 5717 5716 5716 5716 5715 5715 5714 5714 5714 5714
5716 5716 5717 5718 5718 5718 5719 5719 5719 5719 5719 5720 5720 5720 5720 5720 5720 5720 5720 5719 5719 5719 5719 5718 5718 5718 5717 5717 5716 5716 5715 5715 5714 5713 5713 5713 5713 5713 5712 5712 5711 5711 5711
5711 5712 5712 5713 5713 5714 5714 5714 5714 5715 5715 5716 5716 5716 5716 5716 5716 5716 5716 5716 5715 5715 5715 5715 5714 5714 5713 5713 5713 5712 5712 5711 5710 5710 5710 5710 5710 5710 5710 5709 5709 5708 5708
5705 5706 5707 5708 5708 5709 5709 5710 5710 5710 5710 5711 5711 5711 5711 5712 5712 5712 5712 5712 5711 5712 5711 5711 5711 5710 5710 5709 5709 5709 5708 5708 5707 5707 5706 5706 5707 5707 5707 5706 5706 5705 5704
5697 5699 5700 5702 5702 5703 5704 5705 5705 5706 5706 5706 5707 5707 5707 5707 5708 5708 5708 5708 5707 5708 5708 5707 5707 5707 5706 5706 5706 5705 5705 5704 5704 5703 5703 5703 5703 5703 5703 5702 5702 5701 5701
5690 5692 5693 5695 5696 5697 5698 5699 5700 5701 5701 5701 5702 5702 5702 5703 5703 5703 5703 5703 5704 5704 5704 5703 5703 5703 5702 5702 5702 5701 5701 5700 5700 5699 5699 5699 5700 5700 5699 5698 5698 5697 5697
5683 5684 5686 5688 5690 5691 5692 5693 5694 5695 5696 5696 5697 5697 5697 5698 5698 5699 5699 5699 5699 5699 5699 5699 5699 5699 5698 5698 5698 5697 5697 5696 5696 5695 5695 5695 5695 5696 5695 5694 5694 5693 5693
5675 5676 5678 5680 5682 5684 5685 5687 5688 5689 5690 5691 5691 5692 5692 5692 5693 5693 5694 5694 5694 5695 5695 5694 5694 5694 5694 5694 5694 5693 5692 5692 5691 5691 5690 5691 5691 5691 5691 5690 5690 5689 5689
5665 5667 5669 5672 5675 5676 5678 5680 5682 5682 5683 5684 5685 5686 5686 5686 5687 5688 5688 5689 5689 5689 5690 5690 5689 5689 5689 5689 5689 5688 5688 5687 5687 5686 5686 5686 5686 5686 5686 5685 5685 5685 5684
5655 5657 5660 5663 5666 5669 5671 5673 5674 5674 5675 5677 5678 5679 5680 5680 5681 5682 5682 5683 5683 5684 5684 5684 5684 5684 5684 5684 5683 5683 5682 5682 5681 5681 5681 5681 5681 5681 5681 5680 5679 5679 5678
5645 5649 5652 5654 5657 5661 5663 5665 5666 5667 5668 5669 5670 5673 5674 5674 5674 5675 5676 5677 5677 5678 5678 5678 5679 5679 5678 5678 5678 5677 5677 5677 5676 5676 5676 5676 5676 5676 5675 5674 5673 5673 5673
5638 5641 5644 5646 5649 5652 5655 5657 5658 5659 5660 5661 5663 5666 5667 5667 5668 5668 5669 5670 5671 5671 5672 5672 5672 5672 5672 5672 5671 5671 5671 5670 5670 5670 5670 5670 5670 5670 5669 5668 5668 5667 5667
5630 5633 5636 5639 5641 5644 5647 5649 5651 5652 5653 5654 5656 5658 5660 5660 5661 5661 5662 5662 5663 5664 5665 5665 5665 5665 5665 5665 5665 5664 5664 5664 5663 5663 5663 5663 5663 5663 5663 5662 5662 5661 5661
5621 5624 5628 5631 5633 5636 5639 5641 5643 5645 5646 5648 5649 5650 5652 5653 5653 5654 5654 5655 5656 5657 5657 5658 5658 5658 5658 5657 5657 5657 5657 5656 5656 5656 5655 5655 5655 5655 5655 5655 5654 5654 5653
5615 5617 5620 5623 5626 5629 5631 5633 5635 5636 5639 5640 5642 5642 5644 5646 5646 5647 5647 5647 5647 5649 5649 5650 5650 5650 5650 5650 5649 5649 5649 5649 5648 5648 5647 5647 5646 5646 5646 5646 5646 5646 5645
5608 5611 5612 5615 5618 5622 5624 5625 5627 5629 5631 5633 5634 5634 5635 5637 5639 5639 5639 5639 5639 5640 5641 5641 5641 5641 5641 5642 5641 5640 5641 5640 5639 5639 5638 5638 5637 5637 5637 5637 5636 5636 5636
5602 5603 5605 5608 5612 5615 5618 5619 5620 5622 5623 5625 5626 5627 5628 5629 5630 5631 5631 5631 5631 5632 5632 5632 5632 5632 5632 5632 5632 5632 5631 5631 5630 5630 5629 5628 5628 5627 5627 5626 5626 5626 5626
5596 5596 5598 5601 5604 5607 5610 5611 5612 5614 5615 5617 5618 5620 5620 5621 5622 5622 5623 5622 5623 5623 5623 5623 5622 5622 5622 5621 5622 5622 5621 5621 5621 5620 5619 5619 5618 5617 5617 5616 5616 5615 5615
5590 5590 5592 5594 5596 5598 5601 5602 5603 5603 5606 5609 5611 5612 5612 5612 5613 5613 5613 5613 5613 5613 5613 5613 5612 5612 5612 5612 5613 5611 5610 5611 5611 5610 5609 5609 5608 5607 5607 5606 5606 5605 5604
5584 5585 5586 5588 5588 5590 5592 5592 5593 5594 5596 5599 5601 5604 5604 5604 5604 5604 5604 5603 5604 5603 5603 5602 5603 5602 5602 5601 5601 5600 5600 5601 5600 5600 5599 5599 5598 5597 5597 5596 5595 5594 5594
5579 5579 5580 5581 5582 5583 5584 5585 5586 5587 5588 5591 5592 5595 5595 5594 5595 5595 5594 5594 5594 5594 5592 5592 5593 5591 5590 5590 5590 5589 5589 5590 5590 5591 5590 5589 5588 5587 5587 5586 5585 5584 5584
5572 5574 5576 5574 5575 5575 5576 5577 5578 5580 5581 5582 5584 5584 5584 5584 5585 5585 5585 5585 5585 5584 5583 5583 5583 5583 5580 5579 5579 5580 5579 5579 5578 5579 5579 5579 5578 5577 5576 5576 5575 5574 5574
5566 5566 5567 5567 5568 5568 5569 5570 5571 5573 5573 5574 5575 5574 5574 5575 5575 5575 5575 5575 5575 5574 5574 5573 5573 5573 5572 5570 5569 5568 5568 5568 5566 5567 5568 5568 5568 5567 5566 5566 5565 5565 5564
5560 5559 5559 5560 5561 5561 5562 5562 5564 5565 5565 5565 5566 5565 5564 5565 5565 5565 5565 5564 5564 5564 5563 5563 5563 5563 5562 5561 5560 5559 5557 5555 5555 5555 5556 5557 5557 5557 5557 5556 5555 5554 5554
5552 5552 5552 5553 5554 5555 5555 5555 5557 5556 5557 5557 5557 5556 5555 5555 5555 5555 5555 5554 5554 5553 5553 5553 5553 5553 5552 5552 5551 5549 5548 5546 5545 5543 5543 5545 5546 5547 5547 5546 5545 5544 5543